Year,Month,Day,Hour,Minute,Value (Times are PST for temperature in C)
2010,07,03,00,00,14.10
2010,07,03,00,01,14.10
2010,07,03,00,02,14.10
2010,07,03,00,03,14.10
2010,07,03,00,04,14.10
2010,07,03,00,05,14.00
2010,07,03,00,06,14.00
2010,07,03,00,07,14.00
2010,07,03,00,08,14.00
2010,07,03,00,09,14.00
2010,07,03,00,10,14.00
2010,07,03,00,11,14.00
2010,07,03,00,12,14.00
2010,07,03,00,13,14.00
2010,07,03,00,14,14.00
2010,07,03,00,15,14.00
2010,07,03,00,16,14.00
2010,07,03,00,17,14.00
2010,07,03,00,18,14.00
2010,07,03,00,19,14.00
2010,07,03,00,20,14.00
2010,07,03,00,21,14.00
2010,07,03,00,22,14.00
2010,07,03,00,23,14.00
2010,07,03,00,24,14.00
2010,07,03,00,25,14.00
2010,07,03,00,26,14.00
2010,07,03,00,27,13.90
2010,07,03,00,28,13.90
2010,07,03,00,29,13.90
2010,07,03,00,30,13.90
2010,07,03,00,31,13.90
2010,07,03,00,32,13.90
2010,07,03,00,33,13.90
2010,07,03,00,34,13.90
2010,07,03,00,35,13.90
2010,07,03,00,36,13.90
2010,07,03,00,37,13.90
2010,07,03,00,38,13.90
2010,07,03,00,39,13.90
2010,07,03,00,40,13.90
2010,07,03,00,41,13.90
2010,07,03,00,42,13.90
2010,07,03,00,43,13.80
2010,07,03,00,44,13.80
2010,07,03,00,45,13.80
2010,07,03,00,46,13.80
2010,07,03,00,47,13.80
2010,07,03,00,48,13.80
2010,07,03,00,49,13.80
2010,07,03,00,50,13.80
2010,07,03,00,51,13.80
2010,07,03,00,52,13.80
2010,07,03,00,53,13.80
2010,07,03,00,54,13.70
2010,07,03,00,55,13.70
2010,07,03,00,56,13.70
2010,07,03,00,57,13.70
2010,07,03,00,58,13.70
2010,07,03,00,59,13.70
2010,07,03,01,00,13.70
2010,07,03,01,01,13.60
2010,07,03,01,02,13.60
2010,07,03,01,03,13.60
2010,07,03,01,04,13.60
2010,07,03,01,05,13.50
2010,07,03,01,06,13.50
2010,07,03,01,07,13.50
2010,07,03,01,08,13.40
2010,07,03,01,09,13.40
2010,07,03,01,10,13.40
2010,07,03,01,11,13.40
2010,07,03,01,12,13.40
2010,07,03,01,13,13.30
2010,07,03,01,14,13.30
2010,07,03,01,15,13.30
2010,07,03,01,16,13.30
2010,07,03,01,17,13.30
2010,07,03,01,18,13.30
2010,07,03,01,19,13.30
2010,07,03,01,20,13.20
2010,07,03,01,21,13.20
2010,07,03,01,22,13.20
2010,07,03,01,23,13.20
2010,07,03,01,24,13.20
2010,07,03,01,25,13.20
2010,07,03,01,26,13.20
2010,07,03,01,27,13.20
2010,07,03,01,28,13.20
2010,07,03,01,29,13.10
2010,07,03,01,30,13.10
2010,07,03,01,31,13.10
2010,07,03,01,32,13.10
2010,07,03,01,33,13.10
2010,07,03,01,34,13.10
2010,07,03,01,35,13.10
2010,07,03,01,36,13.10
2010,07,03,01,37,13.10
2010,07,03,01,38,13.10
2010,07,03,01,39,13.10
2010,07,03,01,40,13.00
2010,07,03,01,41,13.00
2010,07,03,01,42,13.00
2010,07,03,01,43,13.00
2010,07,03,01,44,13.00
2010,07,03,01,45,13.00
2010,07,03,01,46,13.00
2010,07,03,01,47,12.90
2010,07,03,01,48,12.90
2010,07,03,01,49,12.90
2010,07,03,01,50,12.90
2010,07,03,01,51,12.90
2010,07,03,01,52,12.90
2010,07,03,01,53,12.90
2010,07,03,01,54,12.90
2010,07,03,01,55,12.90
2010,07,03,01,56,12.90
2010,07,03,01,57,12.90
2010,07,03,01,58,12.90
2010,07,03,01,59,12.90
2010,07,03,02,00,12.80
2010,07,03,02,01,12.80
2010,07,03,02,02,12.80
2010,07,03,02,03,12.80
2010,07,03,02,04,12.80
2010,07,03,02,05,12.80
2010,07,03,02,06,12.80
2010,07,03,02,07,12.80
2010,07,03,02,08,12.80
2010,07,03,02,09,12.80
2010,07,03,02,10,12.80
2010,07,03,02,11,12.80
2010,07,03,02,12,12.80
2010,07,03,02,13,12.80
2010,07,03,02,14,12.80
2010,07,03,02,15,12.80
2010,07,03,02,16,12.80
2010,07,03,02,17,12.80
2010,07,03,02,18,12.80
2010,07,03,02,19,12.80
2010,07,03,02,20,12.80
2010,07,03,02,21,12.80
2010,07,03,02,22,12.80
2010,07,03,02,23,12.80
2010,07,03,02,24,12.80
2010,07,03,02,25,12.80
2010,07,03,02,26,12.80
2010,07,03,02,27,12.80
2010,07,03,02,28,12.80
2010,07,03,02,29,12.80
2010,07,03,02,30,12.80
2010,07,03,02,31,12.80
2010,07,03,02,32,12.80
2010,07,03,02,33,12.80
2010,07,03,02,34,12.80
2010,07,03,02,35,12.80
2010,07,03,02,36,12.70
2010,07,03,02,37,12.70
2010,07,03,02,38,12.70
2010,07,03,02,39,12.70
2010,07,03,02,40,12.70
2010,07,03,02,41,12.70
2010,07,03,02,42,12.60
2010,07,03,02,43,12.60
2010,07,03,02,44,12.60
2010,07,03,02,45,12.60
2010,07,03,02,46,12.60
2010,07,03,02,47,12.60
2010,07,03,02,48,12.60
2010,07,03,02,49,12.50
2010,07,03,02,50,12.50
2010,07,03,02,51,12.40
2010,07,03,02,52,12.40
2010,07,03,02,53,12.40
2010,07,03,02,54,12.40
2010,07,03,02,55,12.40
2010,07,03,02,56,12.30
2010,07,03,02,57,12.30
2010,07,03,02,58,12.30
2010,07,03,02,59,12.30
2010,07,03,03,00,12.30
2010,07,03,03,06,12.20
2010,07,03,03,07,12.10
2010,07,03,03,08,12.10
2010,07,03,03,09,12.10
2010,07,03,03,10,12.10
2010,07,03,03,11,12.10
2010,07,03,03,12,12.00
2010,07,03,03,13,12.00
2010,07,03,03,14,12.00
2010,07,03,03,15,11.90
2010,07,03,03,16,11.90
2010,07,03,03,17,11.90
2010,07,03,03,18,11.90
2010,07,03,03,19,11.80
2010,07,03,03,20,11.80
2010,07,03,03,21,11.80
2010,07,03,03,22,11.80
2010,07,03,03,23,11.80
2010,07,03,03,24,11.80
2010,07,03,03,25,11.70
2010,07,03,03,26,11.70
2010,07,03,03,27,11.70
2010,07,03,03,28,11.70
2010,07,03,03,29,11.70
2010,07,03,03,30,11.70
2010,07,03,03,31,11.60
2010,07,03,03,32,11.60
2010,07,03,03,33,11.60
2010,07,03,03,34,11.60
2010,07,03,03,35,11.60
2010,07,03,03,36,11.50
2010,07,03,03,37,11.50
2010,07,03,03,38,11.50
2010,07,03,03,39,11.50
2010,07,03,03,40,11.50
2010,07,03,03,41,11.50
2010,07,03,03,42,11.40
2010,07,03,03,43,11.40
2010,07,03,03,44,11.40
2010,07,03,03,45,11.40
2010,07,03,03,46,11.40
2010,07,03,03,47,11.40
2010,07,03,03,48,11.40
2010,07,03,03,49,11.40
2010,07,03,03,50,11.40
2010,07,03,03,51,11.40
2010,07,03,03,52,11.40
2010,07,03,03,53,11.40
2010,07,03,03,54,11.30
2010,07,03,03,55,11.30
2010,07,03,03,56,11.30
2010,07,03,03,57,11.30
2010,07,03,03,58,11.30
2010,07,03,03,59,11.30
2010,07,03,04,00,11.30
2010,07,03,04,01,11.30
2010,07,03,04,02,11.30
2010,07,03,04,03,11.30
2010,07,03,04,04,11.20
2010,07,03,04,05,11.20
2010,07,03,04,06,11.20
2010,07,03,04,07,11.20
2010,07,03,04,08,11.20
2010,07,03,04,09,11.20
2010,07,03,04,10,11.20
2010,07,03,04,11,11.20
2010,07,03,04,12,11.20
2010,07,03,04,13,11.10
2010,07,03,04,14,11.20
2010,07,03,04,15,11.10
2010,07,03,04,16,11.10
2010,07,03,04,17,11.10
2010,07,03,04,18,11.10
2010,07,03,04,19,11.10
2010,07,03,04,20,11.10
2010,07,03,04,21,11.10
2010,07,03,04,22,11.10
2010,07,03,04,23,11.10
2010,07,03,04,24,11.10
2010,07,03,04,25,11.10
2010,07,03,04,26,11.10
2010,07,03,04,27,11.10
2010,07,03,04,28,11.10
2010,07,03,04,29,11.10
2010,07,03,04,30,11.10
2010,07,03,04,31,11.10
2010,07,03,04,32,11.10
2010,07,03,04,33,11.10
2010,07,03,04,34,11.10
2010,07,03,04,35,11.10
2010,07,03,04,36,11.10
2010,07,03,04,37,11.10
2010,07,03,04,38,11.10
2010,07,03,04,39,11.10
2010,07,03,04,40,11.10
2010,07,03,04,41,11.10
2010,07,03,04,42,11.10
2010,07,03,04,43,11.10
2010,07,03,04,44,11.10
2010,07,03,04,45,11.10
2010,07,03,04,46,11.10
2010,07,03,04,47,11.10
2010,07,03,04,48,11.10
2010,07,03,04,49,11.10
2010,07,03,04,50,11.10
2010,07,03,04,51,11.10
2010,07,03,04,52,11.10
2010,07,03,04,53,11.10
2010,07,03,04,54,11.10
2010,07,03,04,55,11.10
2010,07,03,04,56,11.10
2010,07,03,04,57,11.10
2010,07,03,04,58,11.10
2010,07,03,04,59,11.10
2010,07,03,05,00,11.10
2010,07,03,05,01,11.00
2010,07,03,05,02,11.00
2010,07,03,05,03,11.00
2010,07,03,05,04,11.00
2010,07,03,05,05,11.00
2010,07,03,05,06,11.00
2010,07,03,05,07,11.00
2010,07,03,05,08,11.00
2010,07,03,05,09,11.00
2010,07,03,05,10,11.00
2010,07,03,05,11,11.00
2010,07,03,05,12,11.00
2010,07,03,05,13,11.00
2010,07,03,05,14,11.00
2010,07,03,05,15,11.10
2010,07,03,05,16,11.10
2010,07,03,05,17,11.10
2010,07,03,05,18,11.10
2010,07,03,05,19,11.10
2010,07,03,05,20,11.10
2010,07,03,05,21,11.10
2010,07,03,05,22,11.10
2010,07,03,05,23,11.10
2010,07,03,05,24,11.10
2010,07,03,05,25,11.10
2010,07,03,05,26,11.10
2010,07,03,05,27,11.10
2010,07,03,05,28,11.20
2010,07,03,05,29,11.20
2010,07,03,05,30,11.20
2010,07,03,05,31,11.20
2010,07,03,05,32,11.20
2010,07,03,05,33,11.20
2010,07,03,05,34,11.20
2010,07,03,05,35,11.20
2010,07,03,05,36,11.30
2010,07,03,05,37,11.30
2010,07,03,05,38,11.30
2010,07,03,05,39,11.30
2010,07,03,05,40,11.30
2010,07,03,05,41,11.30
2010,07,03,05,42,11.40
2010,07,03,05,43,11.40
2010,07,03,05,44,11.40
2010,07,03,05,45,11.40
2010,07,03,05,46,11.40
2010,07,03,05,47,11.40
2010,07,03,05,48,11.40
2010,07,03,05,49,11.40
2010,07,03,05,50,11.40
2010,07,03,05,51,11.40
2010,07,03,05,52,11.50
2010,07,03,05,53,11.50
2010,07,03,05,54,11.50
2010,07,03,05,55,11.50
2010,07,03,05,56,11.60
2010,07,03,05,57,11.60
2010,07,03,05,58,11.60
2010,07,03,05,59,11.60
2010,07,03,06,00,11.60
2010,07,03,06,01,11.60
2010,07,03,06,02,11.60
2010,07,03,06,03,11.70
2010,07,03,06,04,11.70
2010,07,03,06,05,11.70
2010,07,03,06,06,11.80
2010,07,03,06,07,11.80
2010,07,03,06,08,11.80
2010,07,03,06,09,11.80
2010,07,03,06,10,11.80
2010,07,03,06,11,11.80
2010,07,03,06,12,11.90
2010,07,03,06,13,11.90
2010,07,03,06,14,11.90
2010,07,03,06,15,11.90
2010,07,03,06,16,11.90
2010,07,03,06,17,11.90
2010,07,03,06,18,12.00
2010,07,03,06,19,12.00
2010,07,03,06,20,12.00
2010,07,03,06,21,12.00
2010,07,03,06,22,12.10
2010,07,03,06,23,12.10
2010,07,03,06,24,12.10
2010,07,03,06,25,12.10
2010,07,03,06,26,12.10
2010,07,03,06,27,12.10
2010,07,03,06,28,12.10
2010,07,03,06,29,12.20
2010,07,03,06,30,12.20
2010,07,03,06,31,12.20
2010,07,03,06,32,12.20
2010,07,03,06,33,12.20
2010,07,03,06,34,12.20
2010,07,03,06,35,12.20
2010,07,03,06,36,12.20
2010,07,03,06,37,12.20
2010,07,03,06,38,12.20
2010,07,03,06,39,12.20
2010,07,03,06,40,12.20
2010,07,03,06,41,12.20
2010,07,03,06,42,12.20
2010,07,03,06,43,12.20
2010,07,03,06,44,12.30
2010,07,03,06,45,12.30
2010,07,03,06,46,12.30
2010,07,03,06,47,12.30
2010,07,03,06,48,12.30
2010,07,03,06,49,12.30
2010,07,03,06,50,12.30
2010,07,03,06,51,12.30
2010,07,03,06,52,12.30
2010,07,03,06,53,12.30
2010,07,03,06,54,12.30
2010,07,03,06,55,12.30
2010,07,03,06,56,12.30
2010,07,03,06,57,12.30
2010,07,03,06,58,12.30
2010,07,03,06,59,12.40
2010,07,03,07,00,12.40
2010,07,03,07,01,12.40
2010,07,03,07,02,12.40
2010,07,03,07,03,12.40
2010,07,03,07,04,12.40
2010,07,03,07,05,12.40
2010,07,03,07,06,12.50
2010,07,03,07,07,12.50
2010,07,03,07,08,12.50
2010,07,03,07,09,12.50
2010,07,03,07,10,12.50
2010,07,03,07,11,12.50
2010,07,03,07,12,12.60
2010,07,03,07,13,12.60
2010,07,03,07,14,12.60
2010,07,03,07,15,12.60
2010,07,03,07,16,12.60
2010,07,03,07,17,12.70
2010,07,03,07,18,12.70
2010,07,03,07,19,12.70
2010,07,03,07,20,12.70
2010,07,03,07,21,12.70
2010,07,03,07,22,12.70
2010,07,03,07,23,12.70
2010,07,03,07,24,12.70
2010,07,03,07,25,12.80
2010,07,03,07,26,12.80
2010,07,03,07,27,12.80
2010,07,03,07,28,12.80
2010,07,03,07,29,12.80
2010,07,03,07,30,12.80
2010,07,03,07,31,12.90
2010,07,03,07,32,12.90
2010,07,03,07,33,12.90
2010,07,03,07,34,12.90
2010,07,03,07,35,12.90
2010,07,03,07,36,12.90
2010,07,03,07,37,12.90
2010,07,03,07,38,13.00
2010,07,03,07,39,13.00
2010,07,03,07,40,13.00
2010,07,03,07,41,13.00
2010,07,03,07,42,13.00
2010,07,03,07,43,13.10
2010,07,03,07,44,13.10
2010,07,03,07,45,13.10
2010,07,03,07,46,13.10
2010,07,03,07,47,13.20
2010,07,03,07,48,13.20
2010,07,03,07,49,13.20
2010,07,03,07,50,13.20
2010,07,03,07,51,13.20
2010,07,03,07,52,13.20
2010,07,03,07,53,13.20
2010,07,03,07,54,13.30
2010,07,03,07,55,13.30
2010,07,03,07,56,13.30
2010,07,03,07,57,13.30
2010,07,03,07,58,13.30
2010,07,03,07,59,13.30
2010,07,03,08,00,13.40
2010,07,03,08,01,13.40
2010,07,03,08,02,13.40
2010,07,03,08,03,13.40
2010,07,03,08,04,13.40
2010,07,03,08,05,13.40
2010,07,03,08,06,13.40
2010,07,03,08,07,13.50
2010,07,03,08,08,13.50
2010,07,03,08,09,13.50
2010,07,03,08,10,13.50
2010,07,03,08,11,13.50
2010,07,03,08,12,13.60
2010,07,03,08,13,13.60
2010,07,03,08,14,13.60
2010,07,03,08,15,13.60
2010,07,03,08,16,13.60
2010,07,03,08,17,13.60
2010,07,03,08,18,13.70
2010,07,03,08,19,13.70
2010,07,03,08,20,13.70
2010,07,03,08,21,13.70
2010,07,03,08,22,13.70
2010,07,03,08,23,13.70
2010,07,03,08,24,13.70
2010,07,03,08,25,13.80
2010,07,03,08,26,13.80
2010,07,03,08,27,13.80
2010,07,03,08,28,13.80
2010,07,03,08,29,13.80
2010,07,03,08,30,13.90
2010,07,03,08,31,13.90
2010,07,03,08,32,13.90
2010,07,03,08,33,13.90
2010,07,03,08,34,13.90
2010,07,03,08,35,14.00
2010,07,03,08,36,14.00
2010,07,03,08,37,14.00
2010,07,03,08,38,14.10
2010,07,03,08,39,14.10
2010,07,03,08,40,14.10
2010,07,03,08,41,14.10
2010,07,03,08,42,14.20
2010,07,03,08,43,14.20
2010,07,03,08,44,14.20
2010,07,03,08,45,14.20
2010,07,03,08,46,14.20
2010,07,03,08,47,14.30
2010,07,03,08,48,14.30
2010,07,03,08,49,14.30
2010,07,03,08,50,14.40
2010,07,03,08,51,14.40
2010,07,03,08,52,14.40
2010,07,03,08,53,14.50
2010,07,03,08,54,14.50
2010,07,03,08,55,14.60
2010,07,03,08,56,14.60
2010,07,03,08,57,14.60
2010,07,03,08,58,14.60
2010,07,03,08,59,14.60
2010,07,03,09,00,14.70
2010,07,03,09,01,14.70
2010,07,03,09,02,14.80
2010,07,03,09,03,14.80
2010,07,03,09,04,14.90
2010,07,03,09,05,14.90
2010,07,03,09,06,14.90
2010,07,03,09,07,15.00
2010,07,03,09,08,15.00
2010,07,03,09,09,15.00
2010,07,03,09,10,15.00
2010,07,03,09,11,15.10
2010,07,03,09,12,15.10
2010,07,03,09,13,15.10
2010,07,03,09,14,15.20
2010,07,03,09,15,15.20
2010,07,03,09,16,15.30
2010,07,03,09,17,15.30
2010,07,03,09,18,15.40
2010,07,03,09,19,15.50
2010,07,03,09,20,15.60
2010,07,03,09,21,15.60
2010,07,03,09,22,15.70
2010,07,03,09,23,15.80
2010,07,03,09,24,15.80
2010,07,03,09,25,15.80
2010,07,03,09,26,15.80
2010,07,03,09,27,15.70
2010,07,03,09,28,15.70
2010,07,03,09,29,15.70
2010,07,03,09,30,15.70
2010,07,03,09,31,15.70
2010,07,03,09,32,15.70
2010,07,03,09,33,15.70
2010,07,03,09,34,15.70
2010,07,03,09,35,15.70
2010,07,03,09,36,15.70
2010,07,03,09,37,15.80
2010,07,03,09,38,15.80
2010,07,03,09,39,15.80
2010,07,03,09,40,15.80
2010,07,03,09,41,15.80
2010,07,03,09,42,15.80
2010,07,03,09,43,15.70
2010,07,03,09,44,15.70
2010,07,03,09,45,15.70
2010,07,03,09,46,15.70
2010,07,03,09,47,15.60
2010,07,03,09,48,15.60
2010,07,03,09,49,15.70
2010,07,03,09,50,15.70
2010,07,03,09,51,15.70
2010,07,03,09,52,15.80
2010,07,03,09,53,15.80
2010,07,03,09,54,15.80
2010,07,03,09,55,15.80
2010,07,03,09,56,15.80
2010,07,03,09,57,15.80
2010,07,03,09,58,15.80
2010,07,03,09,59,15.80
2010,07,03,10,00,15.80
2010,07,03,10,01,15.80
2010,07,03,10,02,15.80
2010,07,03,10,03,15.90
2010,07,03,10,04,15.90
2010,07,03,10,05,16.00
2010,07,03,10,06,15.90
2010,07,03,10,07,15.90
2010,07,03,10,08,15.80
2010,07,03,10,09,15.80
2010,07,03,10,10,15.80
2010,07,03,10,11,15.80
2010,07,03,10,12,15.70
2010,07,03,10,13,15.70
2010,07,03,10,14,15.80
2010,07,03,10,15,15.80
2010,07,03,10,16,15.80
2010,07,03,10,17,15.80
2010,07,03,10,18,15.80
2010,07,03,10,19,15.80
2010,07,03,10,20,15.80
2010,07,03,10,21,15.90
2010,07,03,10,22,15.90
2010,07,03,10,23,16.00
2010,07,03,10,24,16.00
2010,07,03,10,25,16.10
2010,07,03,10,26,16.20
2010,07,03,10,27,16.20
2010,07,03,10,28,16.30
2010,07,03,10,29,16.40
2010,07,03,10,30,16.40
2010,07,03,10,31,16.50
2010,07,03,10,32,16.60
2010,07,03,10,33,16.70
2010,07,03,10,34,16.80
2010,07,03,10,35,16.90
2010,07,03,10,36,16.90
2010,07,03,10,37,16.90
2010,07,03,10,38,16.90
2010,07,03,10,39,17.00
2010,07,03,10,40,17.00
2010,07,03,10,41,17.00
2010,07,03,10,42,16.90
2010,07,03,10,43,16.90
2010,07,03,10,44,16.80
2010,07,03,10,45,16.80
2010,07,03,10,46,16.80
2010,07,03,10,47,16.80
2010,07,03,10,48,16.80
2010,07,03,10,49,16.70
2010,07,03,10,50,16.70
2010,07,03,10,51,16.70
2010,07,03,10,52,16.70
2010,07,03,10,53,16.80
2010,07,03,10,54,16.90
2010,07,03,10,55,16.90
2010,07,03,10,56,16.90
2010,07,03,10,57,17.00
2010,07,03,10,58,17.00
2010,07,03,10,59,17.00
2010,07,03,11,00,17.00
2010,07,03,11,01,17.00
2010,07,03,11,02,17.00
2010,07,03,11,03,17.00
2010,07,03,11,04,17.00
2010,07,03,11,05,17.00
2010,07,03,11,06,17.00
2010,07,03,11,07,17.00
2010,07,03,11,08,17.00
2010,07,03,11,09,17.20
2010,07,03,11,10,17.20
2010,07,03,11,11,17.30
2010,07,03,11,12,17.40
2010,07,03,11,13,17.50
2010,07,03,11,14,17.50
2010,07,03,11,15,17.50
2010,07,03,11,16,17.50
2010,07,03,11,17,17.50
2010,07,03,11,18,17.60
2010,07,03,11,19,17.60
2010,07,03,11,20,17.60
2010,07,03,11,21,17.60
2010,07,03,11,22,17.60
2010,07,03,11,23,17.70
2010,07,03,11,24,17.80
2010,07,03,11,25,17.90
2010,07,03,11,26,17.90
2010,07,03,11,27,18.00
2010,07,03,11,28,18.00
2010,07,03,11,29,18.00
2010,07,03,11,30,18.00
2010,07,03,11,31,17.90
2010,07,03,11,32,17.90
2010,07,03,11,33,17.90
2010,07,03,11,34,18.00
2010,07,03,11,35,17.90
2010,07,03,11,36,17.80
2010,07,03,11,37,17.70
2010,07,03,11,38,17.70
2010,07,03,11,39,17.70
2010,07,03,11,40,17.70
2010,07,03,11,41,17.70
2010,07,03,11,42,17.80
2010,07,03,11,43,17.90
2010,07,03,11,44,17.90
2010,07,03,11,45,17.90
2010,07,03,11,46,18.00
2010,07,03,11,47,18.00
2010,07,03,11,48,18.10
2010,07,03,11,49,18.10
2010,07,03,11,50,18.10
2010,07,03,11,51,18.20
2010,07,03,11,52,18.30
2010,07,03,11,53,18.30
2010,07,03,11,54,18.30
2010,07,03,11,55,18.30
2010,07,03,11,56,18.30
2010,07,03,11,57,18.30
2010,07,03,11,58,18.30
2010,07,03,11,59,18.30
2010,07,03,12,00,18.40
2010,07,03,12,01,18.50
2010,07,03,12,02,18.60
2010,07,03,12,03,18.70
2010,07,03,12,04,18.90
2010,07,03,12,05,19.00
2010,07,03,12,06,19.20
2010,07,03,12,07,19.30
2010,07,03,12,08,19.40
2010,07,03,12,09,19.30
2010,07,03,12,10,19.30
2010,07,03,12,11,19.30
2010,07,03,12,12,19.30
2010,07,03,12,13,19.40
2010,07,03,12,14,19.50
2010,07,03,12,15,19.60
2010,07,03,12,16,19.60
2010,07,03,12,17,19.70
2010,07,03,12,18,19.60
2010,07,03,12,19,19.50
2010,07,03,12,20,19.50
2010,07,03,12,21,19.60
2010,07,03,12,22,19.70
2010,07,03,12,23,19.80
2010,07,03,12,24,19.80
2010,07,03,12,25,19.80
2010,07,03,12,26,19.80
2010,07,03,12,27,19.80
2010,07,03,12,28,19.80
2010,07,03,12,29,19.80
2010,07,03,12,30,19.90
2010,07,03,12,31,20.00
2010,07,03,12,32,20.10
2010,07,03,12,33,20.10
2010,07,03,12,34,20.10
2010,07,03,12,35,20.10
2010,07,03,12,36,20.20
2010,07,03,12,37,20.30
2010,07,03,12,38,20.40
2010,07,03,12,39,20.50
2010,07,03,12,40,20.50
2010,07,03,12,41,20.40
2010,07,03,12,42,20.50
2010,07,03,12,43,20.50
2010,07,03,12,44,20.50
2010,07,03,12,45,20.50
2010,07,03,12,46,20.60
2010,07,03,12,47,20.60
2010,07,03,12,48,20.50
2010,07,03,12,49,20.50
2010,07,03,12,50,20.60
2010,07,03,12,51,20.60
2010,07,03,12,52,20.70
2010,07,03,12,53,20.80
2010,07,03,12,54,20.90
2010,07,03,12,55,21.00
2010,07,03,12,56,21.00
2010,07,03,12,57,21.00
2010,07,03,12,58,20.90
2010,07,03,12,59,20.80
2010,07,03,13,00,20.80
2010,07,03,13,01,20.80
2010,07,03,13,02,20.80
2010,07,03,13,03,20.80
2010,07,03,13,04,20.90
2010,07,03,13,05,21.00
2010,07,03,13,06,21.10
2010,07,03,13,07,21.20
2010,07,03,13,08,21.30
2010,07,03,13,09,21.40
2010,07,03,13,10,21.50
2010,07,03,13,11,21.60
2010,07,03,13,12,21.60
2010,07,03,13,13,21.50
2010,07,03,13,14,21.30
2010,07,03,13,15,21.10
2010,07,03,13,16,20.90
2010,07,03,13,17,20.70
2010,07,03,13,18,20.50
2010,07,03,13,19,20.50
2010,07,03,13,20,20.40
2010,07,03,13,21,20.40
2010,07,03,13,22,20.40
2010,07,03,13,23,20.40
2010,07,03,13,24,20.40
2010,07,03,13,25,20.40
2010,07,03,13,26,20.40
2010,07,03,13,27,20.50
2010,07,03,13,28,20.50
2010,07,03,13,29,20.60
2010,07,03,13,30,20.60
2010,07,03,13,31,20.70
2010,07,03,13,32,20.80
2010,07,03,13,33,20.90
2010,07,03,13,34,21.00
2010,07,03,13,35,21.10
2010,07,03,13,36,21.20
2010,07,03,13,37,21.30
2010,07,03,13,38,21.30
2010,07,03,13,39,21.30
2010,07,03,13,40,21.30
2010,07,03,13,41,21.30
2010,07,03,13,42,21.20
2010,07,03,13,43,21.20
2010,07,03,13,44,21.20
2010,07,03,13,45,21.20
2010,07,03,13,46,21.20
2010,07,03,13,47,21.10
2010,07,03,13,48,21.10
2010,07,03,13,49,21.00
2010,07,03,13,50,21.00
2010,07,03,13,51,20.90
2010,07,03,13,52,20.80
2010,07,03,13,53,20.80
2010,07,03,13,54,20.80
2010,07,03,13,55,20.80
2010,07,03,13,56,20.80
2010,07,03,13,57,20.80
2010,07,03,13,58,20.80
2010,07,03,13,59,20.80
2010,07,03,14,00,20.80
2010,07,03,14,01,20.80
2010,07,03,14,02,20.90
2010,07,03,14,03,20.90
2010,07,03,14,04,20.90
2010,07,03,14,05,20.80
2010,07,03,14,06,20.70
2010,07,03,14,07,20.60
2010,07,03,14,08,20.50
2010,07,03,14,09,20.50
2010,07,03,14,10,20.40
2010,07,03,14,11,20.40
2010,07,03,14,12,20.40
2010,07,03,14,13,20.40
2010,07,03,14,14,20.50
2010,07,03,14,15,20.50
2010,07,03,14,16,20.50
2010,07,03,14,17,20.60
2010,07,03,14,18,20.60
2010,07,03,14,19,20.60
2010,07,03,14,20,20.60
2010,07,03,14,21,20.60
2010,07,03,14,22,20.60
2010,07,03,14,23,20.60
2010,07,03,14,24,20.60
2010,07,03,14,25,20.60
2010,07,03,14,26,20.60
2010,07,03,14,27,20.60
2010,07,03,14,28,20.70
2010,07,03,14,29,20.70
2010,07,03,14,30,20.60
2010,07,03,14,31,20.50
2010,07,03,14,32,20.50
2010,07,03,14,33,20.60
2010,07,03,14,34,20.60
2010,07,03,14,35,20.60
2010,07,03,14,36,20.70
2010,07,03,14,37,20.70
2010,07,03,14,38,20.80
2010,07,03,14,39,20.80
2010,07,03,14,40,20.80
2010,07,03,14,41,20.70
2010,07,03,14,42,20.60
2010,07,03,14,43,20.60
2010,07,03,14,44,20.50
2010,07,03,14,45,20.50
2010,07,03,14,46,20.40
2010,07,03,14,47,20.40
2010,07,03,14,48,20.50
2010,07,03,14,49,20.60
2010,07,03,14,50,20.60
2010,07,03,14,51,20.70
2010,07,03,14,52,20.90
2010,07,03,14,53,21.00
2010,07,03,14,54,21.10
2010,07,03,14,55,21.20
2010,07,03,14,56,21.20
2010,07,03,14,57,21.20
2010,07,03,14,58,21.20
2010,07,03,14,59,21.20
2010,07,03,15,00,21.20
2010,07,03,15,01,21.20
2010,07,03,15,02,21.20
2010,07,03,15,03,21.20
2010,07,03,15,04,21.10
2010,07,03,15,05,21.00
2010,07,03,15,06,20.90
2010,07,03,15,07,20.80
2010,07,03,15,08,20.70
2010,07,03,15,09,20.70
2010,07,03,15,10,20.70
2010,07,03,15,11,20.70
2010,07,03,15,12,20.70
2010,07,03,15,13,20.70
2010,07,03,15,14,20.80
2010,07,03,15,15,20.80
2010,07,03,15,16,20.80
2010,07,03,15,17,20.70
2010,07,03,15,18,20.70
2010,07,03,15,19,20.70
2010,07,03,15,20,20.80
2010,07,03,15,21,20.90
2010,07,03,15,22,21.00
2010,07,03,15,23,21.10
2010,07,03,15,24,21.20
2010,07,03,15,25,21.20
2010,07,03,15,26,21.20
2010,07,03,15,27,21.30
2010,07,03,15,28,21.30
2010,07,03,15,29,21.40
2010,07,03,15,30,21.50
2010,07,03,15,31,21.60
2010,07,03,15,32,21.60
2010,07,03,15,33,21.60
2010,07,03,15,34,21.70
2010,07,03,15,35,21.70
2010,07,03,15,36,21.80
2010,07,03,15,37,21.80
2010,07,03,15,38,21.90
2010,07,03,15,39,21.80
2010,07,03,15,40,21.80
2010,07,03,15,41,21.70
2010,07,03,15,42,21.70
2010,07,03,15,43,21.70
2010,07,03,15,44,21.60
2010,07,03,15,45,21.50
2010,07,03,15,46,21.50
2010,07,03,15,47,21.40
2010,07,03,15,48,21.40
2010,07,03,15,49,21.40
2010,07,03,15,50,21.50
2010,07,03,15,51,21.50
2010,07,03,15,52,21.60
2010,07,03,15,53,21.60
2010,07,03,15,54,21.60
2010,07,03,15,55,21.60
2010,07,03,15,56,21.60
2010,07,03,15,57,21.70
2010,07,03,15,58,21.70
2010,07,03,15,59,21.70
2010,07,03,16,00,21.70
2010,07,03,16,01,21.70
2010,07,03,16,02,21.70
2010,07,03,16,03,21.60
2010,07,03,16,04,21.60
2010,07,03,16,05,21.50
2010,07,03,16,06,21.50
2010,07,03,16,07,21.50
2010,07,03,16,08,21.50
2010,07,03,16,09,21.60
2010,07,03,16,10,21.60
2010,07,03,16,11,21.70
2010,07,03,16,12,21.60
2010,07,03,16,13,21.50
2010,07,03,16,14,21.40
2010,07,03,16,15,21.40
2010,07,03,16,16,21.30
2010,07,03,16,17,21.30
2010,07,03,16,18,21.30
2010,07,03,16,19,21.40
2010,07,03,16,20,21.40
2010,07,03,16,21,21.50
2010,07,03,16,22,21.60
2010,07,03,16,23,21.60
2010,07,03,16,24,21.70
2010,07,03,16,25,21.80
2010,07,03,16,26,21.80
2010,07,03,16,27,21.90
2010,07,03,16,28,21.80
2010,07,03,16,29,21.80
2010,07,03,16,30,21.80
2010,07,03,16,31,21.80
2010,07,03,16,32,21.80
2010,07,03,16,33,21.80
2010,07,03,16,34,21.80
2010,07,03,16,35,21.80
2010,07,03,16,36,21.80
2010,07,03,16,37,21.80
2010,07,03,16,38,21.80
2010,07,03,16,39,21.90
2010,07,03,16,40,21.90
2010,07,03,16,41,21.80
2010,07,03,16,42,21.70
2010,07,03,16,43,21.70
2010,07,03,16,44,21.60
2010,07,03,16,45,21.60
2010,07,03,16,46,21.70
2010,07,03,16,47,21.80
2010,07,03,16,48,21.90
2010,07,03,16,49,21.90
2010,07,03,16,50,21.90
2010,07,03,16,51,21.90
2010,07,03,16,52,21.90
2010,07,03,16,53,21.90
2010,07,03,16,54,21.90
2010,07,03,16,55,21.90
2010,07,03,16,56,21.80
2010,07,03,16,57,21.70
2010,07,03,16,58,21.70
2010,07,03,16,59,21.60
2010,07,03,17,00,21.50
2010,07,03,17,01,21.50
2010,07,03,17,02,21.50
2010,07,03,17,03,21.50
2010,07,03,17,04,21.40
2010,07,03,17,05,21.30
2010,07,03,17,06,21.20
2010,07,03,17,07,21.20
2010,07,03,17,08,21.20
2010,07,03,17,09,21.20
2010,07,03,17,10,21.30
2010,07,03,17,11,21.30
2010,07,03,17,12,21.40
2010,07,03,17,13,21.50
2010,07,03,17,14,21.50
2010,07,03,17,15,21.60
2010,07,03,17,16,21.60
2010,07,03,17,17,21.60
2010,07,03,17,18,21.60
2010,07,03,17,19,21.60
2010,07,03,17,20,21.60
2010,07,03,17,21,21.60
2010,07,03,17,22,21.70
2010,07,03,17,23,21.70
2010,07,03,17,24,21.70